Preview of NWS' New Version of Forecast
This preview is not operational and should not be used for support decisions.

Regional Weather Roundup (RWR)

Issued by National Weather Service (NWS)

                            
000
ASUS43 KBIS 211702
RWRND 

NORTH DAKOTA REGIONAL WEATHER ROUNDUP
NATIONAL WEATHER SERVICE BISMARCK ND
1200 PM CDT SAT SEP 21 2019

NOTE: "FAIR" INDICATES FEW OR NO CLOUDS BELOW 12,000 FEET WITH NO
SIGNIFICANT WEATHER AND/OR OBSTRUCTIONS TO VISIBILITY.


NDZ001>003-009>011-017-211800-
NORTHWEST NORTH DAKOTA
  
CITY           SKY/WX    TMP DP  RH WIND       PRES   REMARKS
WILLISTON      RAIN      56  52  86 N12       29.78F FOG              
MINOT          CLOUDY    59  54  83 NW13      29.69R                  
$$
 
NDZ018>021-031>035-040>046-211800-
SOUTHWEST NORTH DAKOTA
  
CITY           SKY/WX    TMP DP  RH WIND       PRES   REMARKS
BISMARCK       PTSUNNY   67  60  78 W6        29.68F                  
DICKINSON      CLOUDY    55  53  93 W12       29.75R                  
GARRISON         N/A     56  55  97 NW13      29.72R                  
HETTINGER ARPT CLOUDY    57  51  80 W20G29    29.80R                  
$$
 
NDZ004>008-012>016-024-026-027-054-211800-
NORTHEAST NORTH DAKOTA
  
CITY           SKY/WX    TMP DP  RH WIND       PRES   REMARKS
GRAND FORKS    CLOUDY    68  61  78 CALM      29.61F                  
DEVILS LAKE    CLOUDY    63  59  87 W10       29.63F                  
$$
 
NDZ022-023-025-028>030-036>039-047>053-211800-
SOUTHEAST NORTH DAKOTA
  
CITY           SKY/WX    TMP DP  RH WIND       PRES   REMARKS
FARGO          PTSUNNY   72  65  78 SW15      29.63R                  
JAMESTOWN      PTSUNNY   71  63  75 SW12      29.62F                  
$$